DELTA 1 DEB, 10715

Orbit data source: Space-Track

DELTA 1 DEB, 10715 is space debris in LEO originally from a launch on Thu, 29 Jul 1976 UTC launched from the Air Force Western Test Range (AFWTR). Debris objects in space refer to the collection of defunct objects orbiting the Earth. Examples of debris include non-operational satellites, rocket bodies, and fragments generated from explosions, collisions, or faulty payload assembly.

Loading next visibility...
Identifier
10715, 1976-077AL
Orbit
LEO
Country
Flag of USUS
Related business
Manufacturer
Unknown
Mission
Spacecraft
Bus & Motor
Unknown
Mass
Unknown
Launch date (UTC)
1976-07-29 (50 years ago)
Launch vehicle
Unknown
Launch site
Air Force Western Test Range (AFWTR)
Object type
Payload
Rocket body
Debris
Shape & HBR
Unknown shape, 0.1 m
Radar Cross Section
Medium (>0.1 m² and <1 m²)

Expand to show TLE details & history
Last TLE update: 9 hours ago

TLE from 9 hours ago
0 DELTA 1 DEB
1 10715U 76077AL  26127.85262052  .00000167  00000-0  31205-2 0  9996
2 10715 102.5436 253.3009 0434233 294.4384 243.2092 11.63918166117498
Epoch: 2026-05-07T20:27Z
TLE epoch observation values (Epoch: 2026-05-07T20:27:46.412Z)
Latitude
6.45953°
Longitude
-97.89845°
Altitude
2,021.381 km
Speed
6.818 km/s
True Right ascension
04h 58m 57s
True Declination
6° 25' 37"
Sunlit
Object was in daylight at epoch
Visualization orbit readout
Latitude
Unknown
Longitude
Unknown
Altitude
Unknown
Speed
Unknown
Apparent Right ascension
Unknown
Apparent Declination
Unknown
Sunlit
N/A
Visualization observer readout
Local Sidereal Time
13:28:33
Azimuth
Unknown
Elevation
Unknown
Doppler factor
Unknown
Orbital elements
Apogee altitude
2,201.31 km
Perigee altitude
1,487.222 km
Semi-major axis
8,222.403 km
Eccentricity
0.04342
Inclination
102.5436°
RAAN
253.3009°
Arg. of periapsis
294.4384°
True anomaly
238.87767°
Mean anomaly
243.2092°
Eccentric anomaly
241.03249°
Mean motion
2.91102 °/min
Orbital period
123.67 mins
BSTAR
0.0031205
Loading maneuver chart data...
Computing Atmospheric mass density...
Loading historical data...
Loading historical data...
Loading historical data...
Loading historical data...
Loading historical data...
Loading historical data...
Loading historical data...

Documentation

Showing up to 5 results
|